| time (UTC) | temp C | wind direction | speed KPH | gust KPH | rain 1hr cm | rain 24hr cm | rain mn cm | humidity % | barometer mb |
| 20260508200343 | 23 | 53 | 4.8 | 11.3 | 0.00 | 0.97 | 0.97 | 89 | 1010.2 |
| 20260508195828 | 23 | 94 | 3.2 | 9.7 | 0.00 | 0.97 | 0.97 | 89 | 1010.2 |
| 20260508195325 | 23 | 49 | 4.8 | 12.9 | 0.00 | 0.97 | 0.97 | 89 | 1010.3 |
| 20260508194829 | 23 | 5 | 6.4 | 12.9 | 0.00 | 0.97 | 0.97 | 89 | 1010.3 |
| 20260508194336 | 23 | 63 | 6.4 | 14.5 | 0.00 | 0.97 | 0.97 | 89 | 1010.4 |
| 20260508193837 | 23 | 61 | 9.7 | 14.5 | 0.00 | 0.97 | 0.97 | 89 | 1010.4 |
| 20260508193318 | 23 | 94 | 6.4 | 11.3 | 0.00 | 0.97 | 0.97 | 89 | 1010.5 |
| 20260508192831 | 23 | 61 | 3.2 | 9.7 | 0.00 | 0.97 | 0.97 | 89 | 1010.7 |
| 20260508192354 | 23 | 46 | 4.8 | 11.3 | 0.00 | 0.97 | 0.97 | 89 | 1010.7 |
| 20260508191819 | 23 | 94 | 6.4 | 9.7 | 0.00 | 0.97 | 0.97 | 89 | 1010.8 |
| 20260508191321 | 22 | 54 | 1.6 | 8.0 | 0.00 | 0.97 | 0.97 | 89 | 1010.8 |
| 20260508190832 | 22 | 56 | 4.8 | 8.0 | 0.00 | 0.97 | 0.97 | 89 | 1011.0 |
| 20260508190337 | 22 | 118 | 4.8 | 9.7 | 0.00 | 0.97 | 0.97 | 89 | 1011.1 |
| 20260508185824 | 22 | 102 | 3.2 | 6.4 | 0.00 | 0.97 | 0.97 | 89 | 1011.3 |
| 20260508185327 | 22 | 101 | 3.2 | 8.0 | 0.00 | 0.97 | 0.97 | 89 | 1011.3 |
| 20260508184829 | 22 | 101 | 4.8 | 8.0 | 0.00 | 0.97 | 0.97 | 89 | 1011.4 |
| 20260508184332 | 22 | 82 | 4.8 | 8.0 | 0.00 | 0.97 | 0.97 | 89 | 1011.4 |
| 20260508183830 | 22 | 79 | 3.2 | 8.0 | 0.00 | 0.97 | 0.97 | 89 | 1011.5 |
| 20260508183335 | 22 | 167 | 4.8 | 9.7 | 0.00 | 0.97 | 0.97 | 89 | 1011.5 |
| 20260508182819 | 22 | 86 | 4.8 | 9.7 | 0.00 | 0.97 | 0.97 | 89 | 1011.5 |
| 20260508182352 | 22 | 65 | 6.4 | 9.7 | 0.00 | 0.97 | 0.97 | 89 | 1011.6 |
| 20260508181832 | 22 | 71 | 3.2 | 9.7 | 0.00 | 0.97 | 0.97 | 89 | 1011.6 |
| 20260508181338 | 22 | 77 | 4.8 | 12.9 | 0.00 | 0.97 | 0.97 | 89 | 1011.6 |
| 20260508180839 | 21 | 84 | 6.4 | 9.7 | 0.00 | 0.97 | 0.97 | 89 | 1011.7 |
| 20260508180331 | 21 | 109 | 3.2 | 11.3 | 0.00 | 0.97 | 0.97 | 89 | 1011.7 |
| 20260508175837 | 21 | 128 | 6.4 | 11.3 | 0.00 | 0.97 | 0.97 | 89 | 1011.8 |
| 20260508175340 | 21 | 67 | 3.2 | 9.7 | 0.00 | 0.97 | 0.97 | 89 | 1011.9 |
| 20260508174822 | 21 | 54 | 3.2 | 9.7 | 0.00 | 0.97 | 0.97 | 89 | 1011.9 |
| 20260508174354 | 21 | 38 | 3.2 | 9.7 | 0.00 | 0.97 | 0.97 | 89 | 1012.0 |
| 20260508173818 | 21 | 19 | 6.4 | 9.7 | 0.00 | 0.97 | 0.97 | 89 | 1012.1 |
| 20260508173322 | 21 | 12 | 4.8 | 9.7 | 0.00 | 0.97 | 0.97 | 89 | 1012.2 |
| 20260508172826 | 21 | 54 | 6.4 | 9.7 | 0.00 | 0.97 | 0.97 | 89 | 1012.1 |
| 20260508172331 | 21 | 53 | 3.2 | 12.9 | 0.00 | 0.97 | 0.97 | 89 | 1012.1 |
| 20260508171836 | 20 | 35 | 4.8 | 12.9 | 0.00 | 0.97 | 0.97 | 89 | 1012.1 |
| 20260508171317 | 20 | 57 | 3.2 | 12.9 | 0.00 | 0.97 | 0.97 | 89 | 1012.2 |
| 20260508170849 | 20 | 5 | 6.4 | 12.9 | 0.00 | 0.97 | 0.97 | 89 | 1012.2 |
| 20260508170331 | 20 | 45 | 6.4 | 14.5 | 0.00 | 0.97 | 0.97 | 89 | 1012.3 |
| 20260508165838 | 19 | 58 | 4.8 | 14.5 | 0.00 | 0.97 | 0.97 | 89 | 1012.3 |
| 20260508165321 | 19 | 61 | 6.4 | 12.9 | 0.00 | 0.97 | 0.97 | 89 | 1012.4 |
| 20260508164826 | 18 | 40 | 4.8 | 9.7 | 0.00 | 0.97 | 0.97 | 89 | 1012.4 |
| 20260508164358 | 18 | 47 | 4.8 | 12.9 | 0.00 | 0.97 | 0.97 | 89 | 1012.5 |
| 20260508163842 | 18 | 67 | 4.8 | 12.9 | 0.00 | 0.97 | 0.97 | 89 | 1012.6 |
| 20260508163327 | 18 | 49 | 4.8 | 8.0 | 0.00 | 0.97 | 0.97 | 88 | 1012.8 |
| 20260508162831 | 18 | 65 | 3.2 | 9.7 | 0.00 | 0.97 | 0.97 | 88 | 1012.8 |
| 20260508162329 | 18 | 88 | 4.8 | 8.0 | 0.00 | 0.97 | 0.97 | 88 | 1012.9 |
| 20260508161836 | 18 | 58 | 6.4 | 8.0 | 0.00 | 0.97 | 0.97 | 88 | 1013.0 |
| 20260508161323 | 18 | 40 | 1.6 | 6.4 | 0.00 | 0.97 | 0.97 | 88 | 1013.0 |
| 20260508160850 | 18 | 67 | 4.8 | 9.7 | 0.00 | 0.97 | 0.97 | 88 | 1012.9 |
| 20260508160317 | 18 | 69 | 4.8 | 9.7 | 0.00 | 0.97 | 0.97 | 88 | 1013.1 |
| 20260508155821 | 18 | 54 | 3.2 | 12.9 | 0.00 | 0.97 | 0.97 | 88 | 1013.0 |
| 20260508155331 | 18 | 78 | 4.8 | 12.9 | 0.00 | 0.97 | 0.97 | 88 | 1013.1 |
| 20260508154837 | 17 | 32 | 8.0 | 12.9 | 0.00 | 0.97 | 0.97 | 88 | 1013.1 |
| 20260508154343 | 17 | 77 | 6.4 | 14.5 | 0.00 | 0.97 | 0.97 | 88 | 1013.1 |
| 20260508153824 | 17 | 79 | 8.0 | 14.5 | 0.00 | 0.97 | 0.97 | 88 | 1013.4 |
| 20260508153357 | 17 | 96 | 8.0 | 14.5 | 0.00 | 0.97 | 0.97 | 88 | 1013.4 |
| 20260508152843 | 17 | 100 | 6.4 | 14.5 | 0.00 | 0.97 | 0.97 | 88 | 1013.3 |
| 20260508152324 | 17 | 90 | 6.4 | 14.5 | 0.00 | 0.97 | 0.97 | 88 | 1013.4 |
| 20260508151834 | 17 | 96 | 6.4 | 12.9 | 0.00 | 0.97 | 0.97 | 88 | 1013.4 |
| 20260508151338 | 17 | 107 | 4.8 | 9.7 | 0.00 | 0.97 | 0.97 | 88 | 1013.5 |
| 20260508150823 | 17 | 73 | 1.6 | 11.3 | 0.00 | 0.97 | 0.97 | 87 | 1013.6 |
| 20260508150329 | 17 | 78 | 6.4 | 11.3 | 0.00 | 0.97 | 0.97 | 87 | 1013.6 |
| 20260508145905 | 17 | 72 | 6.4 | 12.9 | 0.00 | 0.97 | 0.97 | 87 | 1013.6 |
| 20260508145346 | 17 | 84 | 6.4 | 12.9 | 0.00 | 0.97 | 0.97 | 87 | 1013.6 |
| 20260508144831 | 17 | 61 | 4.8 | 11.3 | 0.00 | 0.97 | 0.97 | 87 | 1013.5 |
| 20260508144338 | 17 | 55 | 4.8 | 14.5 | 0.00 | 0.97 | 0.97 | 87 | 1013.5 |
| 20260508143826 | 17 | 80 | 6.4 | 12.9 | 0.00 | 0.97 | 0.97 | 87 | 1013.6 |
| 20260508143331 | 17 | 86 | 4.8 | 12.9 | 0.00 | 0.97 | 0.97 | 87 | 1013.5 |
| 20260508142820 | 17 | 90 | 6.4 | 12.9 | 0.00 | 0.97 | 0.97 | 87 | 1013.6 |
| 20260508142326 | 17 | 88 | 6.4 | 9.7 | 0.00 | 0.97 | 0.97 | 87 | 1013.7 |
| 20260508141852 | 17 | 84 | 4.8 | 12.9 | 0.00 | 0.97 | 0.97 | 87 | 1013.7 |
| 20260508141350 | 17 | 113 | 8.0 | 12.9 | 0.00 | 0.97 | 0.97 | 87 | 1013.6 |
| 20260508140830 | 17 | 81 | 4.8 | 8.0 | 0.00 | 0.97 | 0.97 | 87 | 1013.6 |
| 20260508140339 | 17 | 72 | 6.4 | 9.7 | 0.00 | 0.97 | 0.97 | 87 | 1013.5 |
| 20260508135825 | 17 | 101 | 4.8 | 12.9 | 0.00 | 0.97 | 0.97 | 87 | 1013.6 |
| 20260508135329 | 17 | 99 | 4.8 | 12.9 | 0.00 | 0.97 | 0.97 | 86 | 1013.4 |
| 20260508134837 | 17 | 74 | 4.8 | 12.9 | 0.00 | 0.97 | 0.97 | 86 | 1013.4 |
| 20260508134318 | 17 | 68 | 8.0 | 12.9 | 0.00 | 0.97 | 0.97 | 86 | 1013.3 |
| 20260508133851 | 17 | 65 | 3.2 | 9.7 | 0.00 | 0.97 | 0.97 | 87 | 1013.5 |
| 20260508133353 | 17 | 64 | 6.4 | 9.7 | 0.00 | 0.97 | 0.97 | 87 | 1013.5 |
| 20260508132841 | 17 | 106 | 3.2 | 12.9 | 0.00 | 0.97 | 0.97 | 86 | 1013.7 |
| 20260508132318 | 17 | 92 | 6.4 | 12.9 | 0.00 | 0.97 | 0.97 | 87 | 1013.7 |
| 20260508131829 | 17 | 100 | 4.8 | 9.7 | 0.00 | 0.97 | 0.97 | 86 | 1013.5 |
| 20260508131355 | 17 | 130 | 1.6 | 12.9 | 0.00 | 0.97 | 0.97 | 86 | 1013.5 |
| 20260508130820 | 17 | 102 | 6.4 | 12.9 | 0.00 | 0.97 | 0.97 | 86 | 1013.5 |
| 20260508130321 | 16 | 101 | 4.8 | 12.9 | 0.00 | 0.97 | 0.97 | 86 | 1013.3 |
| 20260508125825 | 16 | 103 | 6.4 | 12.9 | 0.00 | 0.97 | 0.97 | 86 | 1013.2 |
| 20260508125328 | 16 | 134 | 6.4 | 14.5 | 0.00 | 0.97 | 0.97 | 86 | 1013.2 |
| 20260508124833 | 16 | 126 | 8.0 | 14.5 | 0.00 | 0.97 | 0.97 | 86 | 1013.3 |
| 20260508124317 | 16 | 86 | 4.8 | 14.5 | 0.00 | 0.97 | 0.97 | 86 | 1013.3 |
| 20260508123829 | 16 | 98 | 8.0 | 14.5 | 0.00 | 0.97 | 0.97 | 86 | 1013.4 |
| 20260508123332 | 16 | 121 | 6.4 | 14.5 | 0.00 | 0.97 | 0.97 | 86 | 1013.7 |
| 20260508122838 | 16 | 99 | 8.0 | 12.9 | 0.00 | 0.97 | 0.97 | 86 | 1013.8 |
| 20260508122322 | 16 | 94 | 6.4 | 12.9 | 0.00 | 0.97 | 0.97 | 86 | 1013.8 |
| 20260508121824 | 16 | 71 | 4.8 | 12.9 | 0.00 | 0.97 | 0.97 | 86 | 1014.0 |
| 20260508121328 | 16 | 65 | 4.8 | 12.9 | 0.00 | 0.97 | 0.97 | 86 | 1014.0 |
| 20260508120902 | 16 | 67 | 1.6 | 9.7 | 0.00 | 0.97 | 0.97 | 86 | 1014.2 |
| 20260508120349 | 16 | 42 | 3.2 | 4.8 | 0.05 | 0.97 | 0.97 | 86 | 1014.1 |
| 20260508115835 | 16 | 38 | 3.2 | 9.7 | 0.38 | 0.97 | 0.97 | 85 | 1014.1 |
| 20260508115319 | 16 | 31 | 4.8 | 9.7 | 0.53 | 0.97 | 0.97 | 85 | 1014.1 |
| 20260508114819 | 16 | 41 | 6.4 | 14.5 | 0.89 | 0.97 | 0.97 | 85 | 1013.9 |
| 20260508114324 | 16 | 78 | 8.0 | 16.1 | 0.97 | 0.97 | 0.97 | 85 | 1013.8 |
| 20260508113836 | 16 | 78 | 11.3 | 16.1 | 0.97 | 0.97 | 0.97 | 85 | 1013.8 |
| 20260508113344 | 16 | 52 | 8.0 | 14.5 | 0.97 | 0.97 | 0.97 | 85 | 1013.8 |
| 20260508112828 | 16 | 63 | 6.4 | 14.5 | 0.97 | 0.97 | 0.97 | 85 | 1013.8 |
| 20260508112336 | 16 | 42 | 8.0 | 14.5 | 0.97 | 0.97 | 0.97 | 85 | 1013.9 |
| 20260508111823 | 16 | 36 | 6.4 | 14.5 | 0.97 | 0.97 | 0.97 | 85 | 1014.0 |
| 20260508111324 | 16 | 55 | 6.4 | 14.5 | 0.97 | 0.97 | 0.97 | 85 | 1013.9 |
| 20260508110830 | 16 | 33 | 6.4 | 12.9 | 0.97 | 0.97 | 0.97 | 85 | 1014.0 |
| 20260508032337 | 16 | 20 | 6.4 | 14.5 | 0.00 | 0.00 | 0.00 | 81 | 1014.0 |
| 20260508031822 | 16 | 37 | 8.0 | 14.5 | 0.00 | 0.00 | 0.00 | 81 | 1013.9 |
| 20260508031324 | 16 | 47 | 4.8 | 9.7 | 0.00 | 0.00 | 0.00 | 81 | 1014.1 |
| 20260508030823 | 16 | 349 | 4.8 | 8.0 | 0.00 | 0.00 | 0.00 | 81 | 1014.7 |
| 20260508030354 | 16 | 17 | 4.8 | 6.4 | 0.00 | 0.00 | 0.00 | 81 | 1014.4 |
| 20260508025819 | 16 | 36 | 4.8 | 6.4 | 0.00 | 0.00 | 0.00 | 81 | 1014.5 |
| 20260508025342 | 17 | 44 | 4.8 | 8.0 | 0.00 | 0.00 | 0.00 | 81 | 1014.2 |
| 20260508024828 | 17 | 50 | 4.8 | 8.0 | 0.00 | 0.00 | 0.00 | 81 | 1014.0 |
| 20260508024335 | 17 | 40 | 4.8 | 8.0 | 0.00 | 0.00 | 0.00 | 81 | 1014.0 |
| 20260508023820 | 17 | 38 | 4.8 | 8.0 | 0.00 | 0.00 | 0.00 | 81 | 1014.0 |
| 20260508023327 | 17 | 348 | 3.2 | 12.9 | 0.00 | 0.00 | 0.00 | 81 | 1014.6 |
| 20260508022831 | 17 | 347 | 4.8 | 12.9 | 0.00 | 0.00 | 0.00 | 81 | 1014.6 |
| 20260508022341 | 17 | 330 | 6.4 | 9.7 | 0.00 | 0.00 | 0.00 | 81 | 1014.6 |
| 20260508021826 | 17 | 35 | 4.8 | 8.0 | 0.00 | 0.00 | 0.00 | 81 | 1014.3 |
| 20260508021324 | 17 | 66 | 3.2 | 8.0 | 0.00 | 0.00 | 0.00 | 81 | 1013.9 |
| 20260508020830 | 17 | 52 | 4.8 | 8.0 | 0.00 | 0.00 | 0.00 | 80 | 1013.7 |
| 20260508020318 | 17 | 96 | 6.4 | 11.3 | 0.00 | 0.00 | 0.00 | 80 | 1013.5 |
| 20260508015826 | 17 | 94 | 6.4 | 11.3 | 0.00 | 0.00 | 0.00 | 81 | 1013.6 |
| 20260508015330 | 17 | 92 | 4.8 | 9.7 | 0.00 | 0.00 | 0.00 | 81 | 1013.8 |
| 20260508014835 | 17 | 89 | 4.8 | 9.7 | 0.00 | 0.00 | 0.00 | 81 | 1013.9 |
| 20260508014320 | 17 | 90 | 3.2 | 6.4 | 0.00 | 0.00 | 0.00 | 81 | 1014.1 |
| 20260508013833 | 17 | 90 | 3.2 | 9.7 | 0.00 | 0.00 | 0.00 | 80 | 1014.1 |
| 20260508013337 | 17 | 85 | 3.2 | 9.7 | 0.00 | 0.00 | 0.00 | 80 | 1014.0 |
| 20260508012846 | 17 | 94 | 4.8 | 9.7 | 0.00 | 0.00 | 0.00 | 80 | 1014.0 |
| 20260508012330 | 17 | 43 | 1.6 | 4.8 | 0.00 | 0.00 | 0.00 | 80 | 1014.2 |
| 20260508011821 | 17 | 39 | 3.2 | 8.0 | 0.00 | 0.00 | 0.00 | 80 | 1014.2 |
| 20260508011328 | 17 | 38 | 3.2 | 8.0 | 0.00 | 0.00 | 0.00 | 80 | 1014.3 |
| 20260508010837 | 17 | 41 | 4.8 | 6.4 | 0.00 | 0.00 | 0.00 | 80 | 1014.4 |
| 20260508010347 | 17 | 41 | 1.6 | 6.4 | 0.00 | 0.00 | 0.00 | 80 | 1014.3 |
| 20260508005831 | 17 | 41 | 3.2 | 8.0 | 0.00 | 0.00 | 0.00 | 80 | 1014.5 |
| 20260508005318 | 17 | 32 | 3.2 | 6.4 | 0.00 | 0.00 | 0.00 | 80 | 1014.4 |
| 20260508004826 | 17 | 12 | 3.2 | 6.4 | 0.00 | 0.00 | 0.00 | 80 | 1014.7 |
| 20260508004329 | 17 | 9 | 1.6 | 8.0 | 0.00 | 0.00 | 0.00 | 80 | 1014.9 |
| 20260508003835 | 17 | 19 | 4.8 | 8.0 | 0.00 | 0.00 | 0.00 | 80 | 1015.0 |
| 20260508003323 | 17 | 24 | 4.8 | 8.0 | 0.00 | 0.00 | 0.00 | 80 | 1014.8 |
| 20260508002833 | 18 | 22 | 4.8 | 8.0 | 0.00 | 0.00 | 0.00 | 80 | 1014.5 |
| 20260508002318 | 18 | 11 | 4.8 | 9.7 | 0.00 | 0.00 | 0.00 | 81 | 1014.9 |
| 20260508001826 | 18 | 338 | 4.8 | 8.0 | 0.00 | 0.00 | 0.00 | 81 | 1015.0 |
| 20260508001331 | 18 | 5 | 3.2 | 6.4 | 0.00 | 0.00 | 0.00 | 81 | 1014.7 |
| 20260508000833 | 18 | 5 | 3.2 | 9.7 | 0.00 | 0.00 | 0.00 | 81 | 1014.8 |
| 20260508000320 | 18 | 5 | 4.8 | 9.7 | 0.00 | 0.00 | 0.00 | 81 | 1014.9 |
| 20260507235834 | 18 | 355 | 4.8 | 9.7 | 0.00 | 0.00 | 0.00 | 81 | 1014.7 |
| 20260507235341 | 18 | 355 | 6.4 | 9.7 | 0.00 | 0.00 | 0.00 | 80 | 1014.8 |
| 20260507234827 | 18 | 360 | 4.8 | 8.0 | 0.00 | 0.00 | 0.00 | 80 | 1014.9 |
| 20260507234333 | 18 | 348 | 3.2 | 9.7 | 0.00 | 0.00 | 0.00 | 81 | 1014.9 |
| 20260507233821 | 18 | 339 | 4.8 | 12.9 | 0.00 | 0.00 | 0.00 | 81 | 1015.0 |
| 20260507233326 | 18 | 346 | 4.8 | 12.9 | 0.00 | 0.00 | 0.00 | 81 | 1015.0 |
| 20260507232900 | 18 | 19 | 4.8 | 14.5 | 0.00 | 0.00 | 0.00 | 81 | 1015.0 |
| 20260507232327 | 18 | 333 | 4.8 | 14.5 | 0.00 | 0.00 | 0.00 | 81 | 1015.1 |
| 20260507231831 | 18 | 15 | 6.4 | 14.5 | 0.00 | 0.00 | 0.00 | 81 | 1014.9 |
| 20260507231337 | 18 | 355 | 6.4 | 14.5 | 0.00 | 0.00 | 0.00 | 81 | 1014.9 |
| 20260507230826 | 18 | 5 | 9.7 | 14.5 | 0.00 | 0.00 | 0.00 | 81 | 1014.7 |
| 20260507230335 | 18 | 26 | 9.7 | 14.5 | 0.00 | 0.00 | 0.00 | 81 | 1014.7 |
| 20260507225844 | 18 | 44 | 6.4 | 11.3 | 0.00 | 0.00 | 0.00 | 81 | 1014.7 |
| 20260507225348 | 18 | 55 | 4.8 | 12.9 | 0.00 | 0.00 | 0.00 | 81 | 1015.0 |
| 20260507224836 | 18 | 49 | 4.8 | 11.3 | 0.00 | 0.00 | 0.00 | 81 | 1015.2 |
| 20260507224324 | 18 | 32 | 8.0 | 16.1 | 0.00 | 0.00 | 0.00 | 82 | 1015.2 |
| 20260507223827 | 18 | 23 | 8.0 | 16.1 | 0.00 | 0.00 | 0.00 | 82 | 1015.3 |
| 20260507223337 | 18 | 26 | 8.0 | 14.5 | 0.00 | 0.00 | 0.00 | 82 | 1015.2 |
| 20260507222851 | 18 | 24 | 8.0 | 14.5 | 0.00 | 0.00 | 0.00 | 81 | 1015.2 |
| 20260507222333 | 18 | 342 | 6.4 | 24.1 | 0.00 | 0.00 | 0.00 | 81 | 1015.3 |
| 20260507221820 | 18 | 24 | 9.7 | 24.1 | 0.00 | 0.00 | 0.00 | 81 | 1015.2 |
| 20260507221349 | 18 | 322 | 14.5 | 24.1 | 0.00 | 0.00 | 0.00 | 81 | 1015.0 |
| 20260507220835 | 18 | 355 | 16.1 | 24.1 | 0.00 | 0.00 | 0.00 | 82 | 1014.9 |
| 20260507220322 | 18 | 341 | 12.9 | 20.9 | 0.00 | 0.00 | 0.00 | 82 | 1015.2 |
| 20260507215825 | 18 | 5 | 9.7 | 20.9 | 0.00 | 0.00 | 0.00 | 82 | 1015.2 |
| 20260507215357 | 18 | 325 | 11.3 | 20.9 | 0.00 | 0.00 | 0.00 | 82 | 1015.4 |
| 20260507214845 | 18 | 9 | 9.7 | 19.3 | 0.00 | 0.00 | 0.00 | 82 | 1015.4 |
| 20260507214349 | 18 | 349 | 6.4 | 17.7 | 0.00 | 0.00 | 0.00 | 82 | 1015.7 |
| 20260507213834 | 18 | 40 | 8.0 | 19.3 | 0.00 | 0.00 | 0.00 | 82 | 1015.8 |
| 20260507213319 | 18 | 355 | 9.7 | 20.9 | 0.00 | 0.00 | 0.00 | 82 | 1015.4 |
| 20260507212854 | 18 | 355 | 8.0 | 22.5 | 0.00 | 0.00 | 0.00 | 82 | 1015.4 |
| 20260507212319 | 18 | 360 | 11.3 | 22.5 | 0.00 | 0.00 | 0.00 | 82 | 1015.2 |
| 20260507211828 | 18 | 32 | 6.4 | 16.1 | 0.00 | 0.00 | 0.00 | 83 | 1015.1 |
| 20260507211334 | 18 | 20 | 8.0 | 16.1 | 0.00 | 0.00 | 0.00 | 82 | 1015.1 |
| 20260507210822 | 18 | 355 | 8.0 | 17.7 | 0.00 | 0.00 | 0.00 | 82 | 1015.0 |
| 20260507210327 | 18 | 41 | 6.4 | 17.7 | 0.00 | 0.00 | 0.00 | 82 | 1014.9 |
| 20260507205836 | 18 | 53 | 8.0 | 17.7 | 0.00 | 0.00 | 0.00 | 82 | 1015.0 |
| 20260507205324 | 18 | 46 | 8.0 | 14.5 | 0.00 | 0.00 | 0.00 | 83 | 1014.8 |
| 20260507204829 | 18 | 58 | 4.8 | 16.1 | 0.00 | 0.00 | 0.00 | 83 | 1015.0 |
| 20260507204318 | 18 | 28 | 9.7 | 17.7 | 0.00 | 0.00 | 0.00 | 83 | 1015.2 |
| 20260507203819 | 18 | 64 | 6.4 | 12.9 | 0.00 | 0.00 | 0.00 | 83 | 1015.4 |
| 20260507203324 | 18 | 37 | 3.2 | 17.7 | 0.00 | 0.00 | 0.00 | 83 | 1015.6 |
| 20260507202840 | 18 | 19 | 6.4 | 22.5 | 0.00 | 0.00 | 0.00 | 83 | 1015.9 |
| 20260507202325 | 18 | 11 | 8.0 | 17.7 | 0.00 | 0.00 | 0.00 | 83 | 1016.0 |
| 20260507201828 | 18 | 17 | 12.9 | 19.3 | 0.00 | 0.00 | 0.00 | 83 | 1015.7 |
| 20260507201337 | 18 | 11 | 11.3 | 20.9 | 0.00 | 0.00 | 0.00 | 83 | 1015.7 |
| 20260507200820 | 18 | 28 | 12.9 | 20.9 | 0.00 | 0.00 | 0.00 | 84 | 1015.8 |